Location: Morlupo
(42.1333°N, 12.5000°E)
Time: 15:51:31
(UTC+00:00)

Resurs 01 Rocket - Pass Details

Date: 18 September 2020
Orbit: 633 x 645 km, 98.0° (Epoch: 25 October)

Event Time Altitude Azimuth Distance (km) Brightness Sun altitude
Exits shadow 19:19:16 38° 38° (NE) 998 2.4 -23.3°
Drops below altitude 10° 19:22:32 10° 1° (N) 2,051 4.5 -23.9°
Sets 19:24:50 0° 354° (N) 2,964 5.5 -24.2°
